Wind_Speed
20 22 22 21 20 18 17 16 15 13 14 15 15 16 15 14 13 12 11 11 11 9 7 5 6 6 5 7 10 11 10 9 9 8 7 7 6 6 6 6 6 7
20 21 21 22 21 18 17 15 14 13 14 15 15 15 15 14 13 13 12 11 10 8 6 7 7 6 6 9 12 11 10 9 9 8 7 7 7 6 6 7 7 9
20 21 20 21 22 20 17 15 14 14 15 16 14 14 16 16 14 12 11 10 10 8 6 8 8 7 8 11 13 11 10 10 9 8 8 7 7 7 7 8 9 10
19 22 21 20 22 21 17 15 15 15 16 16 16 17 18 17 14 13 12 11 9 7 7 8 8 8 10 12 13 12 10 10 9 8 8 8 8 8 9 10 11 12
19 22 22 22 22 20 16 16 16 16 17 17 17 18 18 16 14 14 13 10 8 7 8 9 8 8 10 13 13 11 10 10 9 9 8 8 9 10 11 12 13 14
21 23 24 23 22 20 18 17 17 17 17 17 18 19 17 16 14 12 11 9 8 9 9 10 9 8 12 14 13 12 11 10 10 10 9 10 11 12 13 13 14 15
22 23 23 22 22 22 21 18 17 17 17 18 19 18 17 16 12 10 9 8 10 10 10 11 10 9 13 15 13 12 12 11 11 11 11 12 13 14 15 15 15 15
24 23 23 23 24 24 21 18 18 17 18 21 20 19 19 16 13 12 9 9 12 11 11 12 11 9 13 15 13 12 13 13 13 12 13 14 15 15 15 15 16 16
25 25 25 25 25 24 20 20 19 18 21 23 22 22 20 15 12 11 10 12 13 12 12 13 11 10 14 15 13 13 14 14 14 14 15 15 15 15 16 16 17 17
24 24 25 25 25 23 20 20 20 21 25 26 24 23 19 15 11 10 12 14 13 13 14 12 11 13 16 16 14 14 15 15 15 15 16 16 15 16 16 16 17 17
24 23 25 26 24 20 20 21 23 25 29 29 26 22 17 15 12 10 14 15 14 15 14 12 13 16 17 17 16 16 16 16 17 17 17 17 16 17 16 16 16 17
26 22 23 24 22 19 20 23 27 29 30 30 26 21 16 14 12 11 14 16 15 15 13 13 16 17 17 17 17 17 18 18 18 18 17 17 17 17 17 17 17 17
28 25 24 23 22 21 22 27 31 31 30 29 25 20 17 14 13 13 15 16 16 14 13 15 17 17 18 18 17 18 19 19 19 19 18 18 17 17 18 17 17 17
28 27 26 24 23 23 26 31 33 33 32 29 24 20 16 13 13 15 17 17 16 15 15 18 19 18 18 18 18 19 19 20 20 19 19 19 18 18 18 18 17 17
28 27 26 25 24 25 29 34 34 33 31 28 24 21 16 14 15 17 18 18 16 16 18 20 19 19 19 19 19 20 20 20 20 19 19 19 19 19 18 18 18 18
28 28 26 25 27 28 31 34 34 33 30 26 24 22 17 15 16 17 18 18 17 18 20 21 21 22 21 21 20 20 21 21 20 19 19 19 19 19 19 18 19 19
29 27 26 26 28 31 34 35 33 32 29 24 21 19 16 15 17 18 18 17 18 20 22 23 23 24 23 23 23 22 21 21 21 20 20 20 20 20 19 19 19 19
28 27 26 27 28 30 34 34 31 30 27 23 20 17 14 15 17 18 18 19 20 22 22 22 22 23 23 24 24 24 21 20 20 20 19 20 20 19 18 17 17 17
27 28 28 29 29 30 33 33 31 29 25 23 23 18 14 16 18 18 19 21 22 21 21 21 21 22 23 24 26 25 22 19 18 19 18 18 19 18 16 16 15 16
28 29 29 30 30 30 32 33 31 27 23 24 22 17 16 18 17 18 21 22 22 21 22 24 23 23 23 24 26 26 22 19 18 19 19 18 17 16 15 15 14 14
30 32 31 31 31 31 31 31 28 24 24 23 18 14 15 16 17 20 23 22 22 23 25 25 25 24 24 25 26 26 23 20 21 21 20 19 18 17 16 16 15 15
31 33 32 32 32 32 30 28 26 25 24 20 15 14 15 16 19 22 23 22 23 25 26 26 26 25 24 25 26 25 22 20 20 20 19 19 19 17 16 16 15 15
31 33 32 32 32 30 28 27 26 24 20 16 15 16 16 18 21 23 22 23 25 26 26 26 26 26 25 25 25 23 20 17 17 17 17 17 17 16 16 16 16 15
32 32 31 31 30 28 26 24 22 19 16 15 16 17 18 19 22 23 22 23 26 27 27 27 27 27 26 25 25 24 21 15 13 15 15 15 15 16 16 16 16 16
33 31 29 29 28 25 21 19 18 16 16 17 17 18 19 19 20 22 23 24 26 27 27 26 27 28 28 27 26 25 22 16 12 14 14 14 14 15 14 13 13 13
31 30 30 27 23 20 18 17 17 18 18 18 18 18 19 19 20 22 22 24 26 27 27 27 28 29 29 29 27 25 22 18 14 13 14 13 12 13 13 12 12 11
Wind_Direction
188 189 188 188 187 183 183 185 190 198 204 202 196 192 186 183 181 180 190 203 207 211 198 164 152 150 139 141 148 149 150 151 147 143 135 129 122 116 118 115 115 111
186 188 189 190 190 186 184 185 189 199 203 198 197 201 196 186 182 188 197 203 204 207 192 170 161 146 142 150 153 153 152 151 147 140 131 126 121 117 117 112 110 109
188 189 192 193 194 192 189 189 193 203 206 201 202 207 197 184 183 191 197 201 206 207 186 165 154 145 148 155 156 156 154 153 147 137 129 127 125 122 118 112 112 111
193 194 193 192 192 190 188 190 194 201 203 203 205 204 192 182 184 193 200 205 207 200 177 160 153 149 152 158 159 156 156 153 140 131 131 132 129 126 119 115 114 111
196 195 193 193 193 190 192 196 197 202 204 201 195 187 180 179 184 197 204 202 198 190 167 152 150 151 152 157 159 156 157 149 137 135 137 135 132 126 121 119 117 112
194 194 195 196 191 191 201 203 200 205 205 194 179 170 172 177 182 199 207 192 182 178 158 147 148 153 156 158 159 159 155 144 138 140 141 138 134 127 122 119 116 114
191 191 193 192 190 194 203 203 203 207 201 186 173 166 171 173 175 200 211 181 165 161 152 152 152 152 159 161 160 158 152 145 143 143 143 140 133 127 124 120 117 115
186 185 186 187 192 198 199 199 203 205 197 186 176 172 173 170 175 191 189 162 157 156 152 156 152 150 160 162 161 159 155 147 144 145 145 140 132 129 126 122 121 118
183 184 183 185 193 199 195 197 202 201 196 189 181 178 174 168 179 184 164 156 160 156 153 154 151 153 159 161 161 160 156 150 148 149 143 135 130 127 124 123 122 118
185 188 187 189 198 200 192 195 201 196 192 187 182 182 173 162 175 175 156 159 161 155 155 156 155 158 160 161 161 158 155 149 146 143 137 132 130 127 125 124 122 118
187 187 189 195 202 200 194 198 198 191 187 183 181 184 175 163 167 162 157 162 161 157 157 156 158 162 162 162 160 155 151 148 145 143 141 139 136 135 132 128 123 121
186 183 188 198 200 199 198 196 190 186 185 183 182 183 179 168 166 164 162 163 161 158 157 156 159 162 163 162 159 154 152 151 151 148 144 141 138 138 136 131 128 126
191 190 193 197 197 196 193 186 182 181 183 185 184 180 174 167 165 165 162 161 160 157 156 159 162 163 163 161 158 158 157 155 151 147 144 142 140 140 138 134 133 129
190 192 193 192 192 191 184 180 181 180 181 184 183 175 166 161 160 159 160 161 158 156 160 163 164 163 161 159 159 160 160 156 153 151 149 146 143 142 140 135 131 126
187 189 189 187 188 187 181 179 182 181 183 185 179 168 159 156 158 158 158 158 155 162 168 165 163 163 161 161 162 161 159 156 154 153 149 146 144 142 138 134 129 123
188 188 185 182 184 183 179 180 182 182 185 185 177 168 161 156 158 158 157 156 160 169 170 165 166 168 165 163 161 159 157 154 153 152 148 146 144 140 137 134 129 125
189 187 183 181 182 180 179 180 182 183 186 184 173 168 165 158 158 159 158 160 165 172 174 174 175 173 169 165 161 157 155 153 151 152 148 145 143 139 137 134 130 126
186 182 182 184 183 180 179 179 181 185 188 181 171 168 164 156 157 159 160 166 174 180 183 181 177 173 170 166 161 155 151 150 150 149 146 143 141 139 138 137 135 130
183 181 182 183 181 180 180 180 184 188 186 179 177 173 160 154 156 160 166 175 183 186 183 177 172 170 169 166 161 154 147 146 146 144 142 142 142 143 142 139 136 131
181 182 180 178 178 179 181 183 187 187 182 183 183 170 157 157 157 163 174 182 187 183 177 172 169 167 167 166 162 154 146 145 148 146 145 144 144 143 140 137 134 132
181 179 175 174 177 179 182 185 187 185 184 185 178 161 160 161 159 169 180 185 186 181 177 173 169 165 165 166 163 155 149 151 154 152 151 149 150 149 146 145 143 140
180 177 174 174 178 180 183 185 185 184 184 180 168 161 164 161 164 176 184 184 182 181 178 174 168 164 165 167 165 158 151 152 154 153 153 153 151 149 146 146 145 142
180 178 175 176 178 181 183 185 184 182 179 171 164 164 163 162 170 179 183 183 181 180 178 174 168 164 164 166 166 157 146 145 149 149 151 151 148 146 149 151 149 147
179 179 177 177 179 181 181 181 179 176 169 165 165 164 163 165 171 175 178 181 181 179 179 176 169 164 162 164 163 154 141 140 150 151 149 151 154 157 161 160 156 153
179 179 179 178 179 179 175 171 169 167 165 165 165 164 164 163 164 169 175 178 180 180 179 176 170 164 162 164 162 151 139 140 156 157 151 155 162 163 162 160 157 155
178 178 178 176 173 170 166 163 165 166 165 165 165 164 164 161 161 165 170 174 179 180 178 175 172 166 164 166 161 150 141 146 159 163 156 154 157 160 161 161 160 159
Height
1509 1511 1512 1514 1516 1518 1520 1522 1524 1526 1527 1529 1530 1531 1533 1535 1536 1537 1536 1536 1537 1540 1541 1541 1541 1542 1543 1542 1542 1542 1543 1543 1544 1544 1544 1544 1544 1544 1544 1545 1545 1545
1508 1511 1512 1514 1515 1517 1518 1520 1523 1525 1526 1528 1529 1531 1533 1534 1536 1536 1535 1535 1538 1540 1540 1540 1541 1542 1542 1541 1542 1542 1542 1543 1543 1544 1544 1544 1544 1545 1545 1545 1545 1545
1508 1510 1512 1514 1515 1516 1518 1520 1522 1524 1526 1528 1529 1531 1533 1533 1534 1535 1535 1536 1538 1540 1540 1540 1541 1541 1541 1541 1542 1542 1542 1543 1543 1543 1544 1544 1544 1545 1545 1545 1545 1545
1508 1510 1511 1513 1514 1516 1518 1520 1522 1523 1525 1528 1529 1530 1532 1532 1533 1535 1536 1537 1538 1539 1539 1540 1541 1541 1541 1541 1541 1542 1542 1543 1543 1543 1544 1544 1545 1545 1545 1545 1546 1546
1507 1508 1510 1511 1513 1515 1518 1520 1522 1523 1525 1527 1529 1530 1531 1532 1534 1535 1536 1537 1538 1538 1539 1540 1541 1541 1541 1541 1541 1542 1542 1543 1543 1544 1544 1545 1545 1545 1545 1546 1546 1546
1504 1506 1508 1510 1512 1515 1518 1520 1521 1522 1524 1527 1528 1530 1531 1533 1534 1535 1536 1537 1537 1538 1538 1540 1541 1541 1541 1541 1541 1542 1542 1543 1543 1544 1545 1545 1545 1545 1545 1546 1546 1546
1503 1505 1508 1510 1512 1515 1517 1519 1521 1522 1524 1526 1528 1530 1532 1534 1535 1534 1535 1536 1537 1538 1539 1540 1541 1541 1540 1541 1541 1542 1542 1543 1544 1544 1545 1545 1545 1546 1546 1546 1547 1547
1502 1505 1508 1510 1511 1513 1515 1518 1520 1522 1524 1526 1528 1529 1532 1534 1534 1534 1535 1536 1537 1538 1539 1540 1541 1540 1540 1540 1541 1541 1542 1543 1544 1544 1545 1545 1546 1546 1546 1547 1547 1547
1502 1504 1506 1508 1509 1511 1514 1516 1519 1522 1525 1526 1528 1529 1531 1533 1534 1534 1535 1537 1537 1538 1538 1540 1540 1539 1539 1540 1541 1542 1542 1543 1544 1545 1545 1546 1546 1547 1547 1547 1548 1548
1500 1503 1505 1506 1507 1510 1513 1515 1518 1521 1524 1526 1528 1529 1531 1533 1534 1534 1536 1537 1537 1538 1539 1539 1539 1539 1539 1540 1541 1542 1542 1543 1544 1545 1546 1546 1547 1547 1548 1548 1548 1548
1499 1502 1504 1505 1507 1511 1513 1515 1516 1519 1522 1525 1527 1529 1531 1533 1534 1534 1536 1537 1537 1538 1538 1538 1538 1538 1539 1540 1541 1542 1543 1543 1544 1545 1546 1546 1547 1548 1548 1549 1549 1549
1499 1501 1503 1505 1508 1511 1513 1514 1516 1518 1521 1524 1527 1528 1530 1532 1534 1534 1536 1537 1537 1538 1537 1537 1537 1538 1539 1540 1541 1542 1543 1544 1544 1545 1546 1547 1548 1548 1548 1549 1549 1549
1499 1501 1503 1505 1508 1510 1512 1514 1515 1518 1521 1524 1527 1528 1529 1532 1533 1534 1535 1536 1537 1537 1536 1536 1537 1538 1539 1540 1541 1542 1543 1543 1544 1545 1546 1547 1548 1548 1549 1549 1549 1549
1498 1500 1502 1504 1506 1508 1511 1513 1515 1518 1521 1524 1526 1527 1529 1531 1532 1533 1534 1535 1536 1535 1535 1535 1536 1538 1539 1540 1541 1542 1543 1543 1544 1545 1546 1547 1548 1549 1549 1549 1549 1549
1496 1498 1501 1503 1505 1507 1510 1513 1515 1518 1521 1523 1525 1526 1529 1530 1531 1532 1533 1534 1534 1533 1533 1535 1536 1537 1539 1540 1541 1542 1543 1544 1545 1546 1547 1548 1548 1549 1549 1550 1550 1550
1494 1497 1500 1502 1503 1506 1509 1512 1515 1518 1520 1523 1524 1526 1528 1529 1530 1531 1532 1533 1532 1532 1533 1534 1535 1536 1537 1539 1540 1542 1543 1544 1545 1547 1548 1548 1549 1549 1550 1551 1551 1551
1493 1496 1499 1501 1502 1505 1508 1511 1514 1517 1519 1522 1523 1525 1527 1528 1529 1530 1531 1531 1531 1531 1532 1533 1534 1535 1537 1538 1540 1541 1543 1544 1546 1547 1548 1548 1549 1550 1551 1551 1552 1552
1493 1496 1498 1500 1502 1504 1507 1510 1513 1515 1518 1520 1522 1523 1524 1526 1528 1529 1530 1530 1530 1531 1531 1532 1533 1535 1537 1538 1539 1541 1543 1545 1546 1547 1548 1549 1550 1550 1551 1552 1552 1552
1493 1495 1497 1499 1501 1504 1506 1509 1512 1514 1516 1518 1520 1522 1523 1524 1527 1528 1528 1529 1529 1530 1531 1533 1534 1536 1537 1538 1539 1541 1543 1545 1546 1547 1548 1549 1550 1551 1552 1552 1552 1552
1492 1494 1496 1499 1501 1503 1506 1508 1511 1513 1515 1517 1519 1521 1523 1524 1526 1526 1527 1527 1529 1530 1531 1533 1534 1535 1537 1538 1540 1541 1543 1545 1546 1547 1548 1549 1550 1551 1552 1552 1552 1552
1491 1493 1495 1498 1500 1503 1506 1508 1511 1513 1515 1517 1518 1520 1522 1523 1524 1525 1525 1527 1528 1529 1531 1532 1533 1535 1537 1538 1540 1541 1543 1544 1546 1547 1548 1549 1550 1551 1552 1552 1552 1552
1489 1492 1494 1497 1500 1503 1505 1507 1510 1512 1514 1516 1518 1520 1521 1522 1523 1524 1525 1526 1527 1529 1530 1532 1533 1535 1536 1538 1540 1541 1543 1545 1546 1547 1548 1549 1550 1551 1552 1552 1552 1552
1489 1492 1494 1497 1500 1502 1505 1507 1510 1512 1514 1516 1518 1520 1521 1522 1522 1523 1525 1526 1527 1528 1530 1531 1533 1534 1536 1539 1540 1542 1544 1546 1547 1548 1549 1550 1551 1551 1552 1551 1552 1552
1489 1491 1494 1497 1500 1502 1505 1507 1510 1512 1514 1516 1518 1519 1520 1521 1522 1523 1524 1526 1527 1528 1529 1531 1532 1534 1536 1539 1540 1542 1544 1546 1549 1549 1549 1550 1550 1551 1551 1551 1551 1552
1488 1491 1494 1497 1500 1503 1505 1508 1510 1512 1514 1516 1518 1519 1520 1521 1522 1523 1524 1525 1527 1528 1530 1531 1532 1534 1536 1538 1540 1542 1543 1546 1549 1549 1549 1550 1550 1550 1551 1552 1552 1553
1488 1491 1495 1498 1501 1503 1506 1508 1510 1512 1513 1515 1517 1519 1520 1521 1522 1522 1524 1525 1526 1528 1530 1531 1532 1534 1536 1538 1540 1541 1543 1545 1548 1549 1550 1550 1551 1551 1551 1552 1552 1553